STARLINK-34759, 65096

Orbit data source: Space-Track

STARLINK-34759, 65096 is a payload satellite owned by SpaceX/Seattle (US) in LEO that was launched on Mon, 04 Aug 2025 UTC via an FALCON 9 launch vehicle from the Air Force Eastern Test Range (AFETR). Payload-class satellites include a variety of spacecraft equipped with specific instruments for various scientific and technological missions. These include communications satellites like Starlink; space stations such as the ISS; scientific satellites like the Hubble; Earth observation satellites from companies like Planet Labs, Umbra, and HawkEye 360; GPS; miniature CubeSats for education and research; and military/defense satellites.

Loading next visibility...
Identifier
65096, 2025-167U
Orbit
LEO
Country
Flag of USUS
Related business
Manufacturer
SpaceX/Seattle
Mission
Operational Commercial Communications
Bus & Motor
STARLINK V2MO, Unknown motor
Mass
575 kg wet, ~530 kg dry
Launch date (UTC)
2025-08-04 (9 months ago)
Launch vehicle
FALCON 9
Launch site
Air Force Eastern Test Range (AFETR)
Object type
Payload
Rocket body
Debris
Shape & HBR
Box + 2 Pan, 17.7 m
Radar Cross Section
36.964 m², Large (>1 m²)

Expand to show TLE details & history
Last TLE update: 12 hours ago

TLE from 12 hours ago
0 STARLINK-34759
1 65096U 25167U   26127.27793394  .00024597  00000-0  57278-3 0  9998
2 65096  53.1597 113.5472 0001174 101.2904 258.8234 15.42163663 42466
Epoch: 2026-05-07T06:40Z
TLE epoch observation values (Epoch: 2026-05-07T06:40:13.492Z)
Latitude
-0.00001°
Longitude
148.3646°
Altitude
440.784 km
Speed
7.649 km/s
True Right ascension
07h 34m 11s
True Declination
0° 00' 00"
Sunlit
Object was in daylight at epoch
Visualization orbit readout
Latitude
Unknown
Longitude
Unknown
Altitude
Unknown
Speed
Unknown
Apparent Right ascension
Unknown
Apparent Declination
Unknown
Sunlit
N/A
Visualization observer readout
Local Sidereal Time
02:56:55
Azimuth
Unknown
Elevation
Unknown
Doppler factor
Unknown
Orbital elements
Apogee altitude
440.783 km
Perigee altitude
439.182 km
Semi-major axis
6,818.12 km
Eccentricity
0.00012
Inclination
53.1597°
RAAN
113.5472°
Arg. of periapsis
101.2904°
True anomaly
258.8102°
Mean anomaly
258.8234°
Eccentric anomaly
258.8168°
Mean motion
3.85519 °/min
Orbital period
93.38 mins
BSTAR
0.00057278
Loading maneuver chart data...
Computing Atmospheric mass density...
Loading historical data...
Loading historical data...
Loading historical data...
Loading historical data...
Loading historical data...
Loading historical data...
Loading historical data...

Documentation

Showing up to 5 results
|